Weather in Belozerskoe

Russia / Kurgan Oblast     55°49′13″N   65°34′38″E
temp.,
°C
wind,
m/s
gust,
m/s
humid.,
%
clouds,
%
prec.,
mm/h
press.,
hPa
HPBL,
m
6 may, thu
thu623:00+21ssw6133491 0.0 995379
02:00+13wnw81465100 0.0 999752
05:00+10w712650 0.0 1003946
08:00+10wnw911560 0.0 10051132
11:00+13wnw911395 0.0 10071880
14:00+14wnw10123786 0.0 10092252
17:00+13wnw9113767 0.0 10112156
20:00+11wnw59435 0.0 1013286
7 may, fri
fri723:00+7wnw36520 0.0 1016123
02:00+6w37580 0.0 1017130
05:00+5wnw49650 0.0 1020186
08:00+10wnw47489 0.0 1021555
11:00+15wnw463557 0.0 10211252
14:00+18wnw46295 0.0 10211565
17:00+19wnw45295 0.0 10201677
20:00+15wnw11450 0.0 102011
8 may, sat
sat823:00+12ssw22505 0.0 102111
02:00+10ssw2254100 0.0 102110
05:00+10s225598 0.0 102110
08:00+14s1245100 0.0 1021165
11:00+19sse2231100 0.0 10201434
14:00+21se1225100 0.0 10192523
17:00+21s0224100 0.0 10182673
20:00+17n2237100 0.0 101821
9 may, sun
sun923:00+15nne3542100 0.0 101879
02:00+14ne334798 0.0 101748
05:00+12nne365193 0.0 101796
08:00+16ene464291 0.0 1017320
11:00+22ene672920 0.0 10172542
14:00+23ene7826100 0.0 10163029
17:00+21e683279 0.0 10161860
20:00+17ne51147100 0.0 1017292
10 may, mon
mon1023:00+15nne4851100 0.0 1018158
02:00+14ne4962100 0.0 1018195
05:00+12nne4107181 0.0 1019229
08:00+16ne575990 0.0 1020446
11:00+21ne454224 0.0 10211610
14:00+20e224297 0.0 1021764
17:00+21ne123696 0.0 1021933
20:00+18n014615 0.0 102111